Weather History for Whiteman AFB, MO

Change the Weather History Date:

Sunday, November 4, 2012

  Actual Average Record
Temperature  
Mean Temperature 44 °F -  
Max Temperature 57 °F 56 °F 73 °F (2005)
Min Temperature 30 °F 39 °F 24 °F (1997)
Degree Days  
Heating Degree Days 22    
Growing Degree Days 0 (Base 50)    
Moisture  
Dew Point 37 °F    
Average Humidity 76    
Maximum Humidity 99    
Minimum Humidity 50    
Precipitation  
Precipitation 0.00 in - - ()
Sea Level Pressure  
Sea Level Pressure 30.18 in    
Wind  
Wind Speed 3 mph (SE)    
Max Wind Speed 8 mph    
Max Gust Speed -    
Visibility 7 miles    
Events Rain    
Averages and records for this station are not official NWS values.
T = Trace of Precipitation, MM = Missing Value Source: NWS Daily Summary

Daily Weather History Graph

Daily Weather History Graph

Search for Another Location

Airport:

Trip Planner

Search our weather history database for the weather conditions in past years. The results will help you decide how hot, cold, wet, or windy it might be!

Date:

Astronomy

Nov. 04, 2012 Rise Set
Actual Time 6:44 AM CST 5:10 PM CST
Civil Twilight 6:17 AM CST 5:37 PM CST
Nautical Twilight 5:45 AM CST 6:09 PM CST
Astronomical Twilight 5:14 AM CST 6:40 PM CST
Moon 9:49 PM CST (11/4) 11:28 AM CST (11/4)
Length of Visible Light 11h 20m
Length of Day
10h 25m
Waning Gibbous, 72% of the Moon is Illuminated
Nov 4
Waning Gibbous
Nov 6
Last Quarter
Nov 13
New
Nov 20
First Quarter
Nov 28
Full

Hourly Weather History & Observations

Time (CST) Temp. Windchill Dew Point Humidity Pressure Visibility Wind Dir Wind Speed Gust Speed Precip Events Conditions
12:55 AM 35.6 °F 32.8 °F 33.3 °F 91% 30.22 in 4.0 mi SSW 3.5 mph - N/A   Clear
1:55 AM 35.2 °F - 33.4 °F 93% 30.22 in 4.0 mi Calm Calm - N/A   Clear
1:55 AM 34.3 °F - 32.7 °F 94% 30.22 in 4.0 mi Calm Calm - N/A   Clear
2:55 AM 31.5 °F - 31.1 °F 99% 30.21 in 7.0 mi Calm Calm - N/A   Clear
3:55 AM 30.7 °F - 30.4 °F 99% 30.20 in 6.0 mi Calm Calm - N/A   Clear
4:55 AM 34.2 °F - 33.8 °F 99% 30.22 in 5.0 mi Calm Calm - N/A   Partly Cloudy
5:55 AM 32.7 °F - 32.5 °F 99% 30.24 in 10.0 mi Calm Calm - N/A   Mostly Cloudy
6:55 AM 32.7 °F 29.6 °F 32.4 °F 99% 30.25 in 4.0 mi East 3.5 mph - N/A   Scattered Clouds
7:55 AM 36.1 °F - 35.8 °F 99% 30.25 in 3.0 mi Calm Calm - N/A   Overcast
8:55 AM 40.5 °F 38.4 °F 40.3 °F 99% 30.26 in 4.0 mi SSW 3.5 mph - N/A   Mostly Cloudy
9:55 AM 46.9 °F - 42.3 °F 84% 30.26 in 4.0 mi South 6.9 mph - N/A   Haze
10:55 AM 51.4 °F - 41.2 °F 68% 30.24 in 10.0 mi SSW 5.8 mph - N/A   Clear
11:55 AM 54.9 °F - 40.1 °F 58% 30.22 in 10.0 mi SSE 5.8 mph - N/A   Clear
12:55 PM 55.8 °F - 38.3 °F 52% 30.18 in 10.0 mi Calm Calm - N/A   Partly Cloudy
1:55 PM 56.8 °F - 38.7 °F 51% 30.15 in 10.0 mi SSE 4.6 mph - N/A   Partly Cloudy
2:55 PM 57.2 °F - 38.7 °F 50% 30.13 in 9.0 mi ESE 8.1 mph - N/A   Partly Cloudy
3:55 PM 55.6 °F - 38.1 °F 52% 30.12 in 8.0 mi SSE 5.8 mph - N/A   Scattered Clouds
4:55 PM 53.8 °F - 37.6 °F 54% 30.12 in 9.0 mi SSE 4.6 mph - N/A   Scattered Clouds
5:55 PM 52.2 °F - 36.9 °F 56% 30.12 in 8.0 mi SE 4.6 mph - N/A   Clear
6:55 PM 50.2 °F - 38.3 °F 64% 30.12 in 8.0 mi SE 5.8 mph - N/A   Mostly Cloudy
7:55 PM 48.4 °F - 38.8 °F 70% 30.11 in 9.0 mi East 5.8 mph - N/A   Scattered Clouds
8:55 PM 47.5 °F - 38.5 °F 71% 30.11 in 8.0 mi East 5.8 mph - N/A   Partly Cloudy
9:34 PM 48.2 °F - 37.4 °F 66% 30.12 in 8.0 mi ENE 3.5 mph - N/A   Mostly Cloudy
9:55 PM 47.8 °F - 36.5 °F 65% 30.11 in 9.0 mi East 4.6 mph - N/A   Scattered Clouds
10:27 PM 48.2 °F - 37.4 °F 66% 30.09 in 9.0 mi ESE 5.8 mph - N/A Rain Light Rain
10:55 PM 46.6 °F - 38.3 °F 73% 30.09 in 9.0 mi ESE 5.8 mph - 0.00 in   Light Drizzle